Weather History for Limon, CO

Change the Weather History Date:

Sunday, January 19, 2014

  Actual Average Record
Temperature  
Mean Temperature 38 °F -  
Max Temperature 61 °F - 68 °F (2003)
Min Temperature 14 °F - -6 °F (2002)
Degree Days  
Heating Degree Days 27    
Month to date heating degree days 766  
Cooling Degree Days 0    
Month to date cooling degree days 0  
Moisture  
Dew Point 15 °F    
Average Humidity 47    
Maximum Humidity 81    
Minimum Humidity 12    
Precipitation  
Precipitation 0.00 in - 0.05 in (2006)
Month to date precipitation 0.30  
Year to date precipitation 0.30  
Sea Level Pressure  
Sea Level Pressure 30.05 in    
Wind  
Wind Speed 8 mph (NW)    
Max Wind Speed 15 mph    
Max Gust Speed 22 mph    
Visibility 10 miles    
Events      
T = Trace of Precipitation, MM = Missing Value Source: NWS Daily Summary

Daily Weather History Graph

Daily Weather History Graph

Search for Another Location

Airport:

Trip Planner

Search our weather history database for the weather conditions in past years. The results will help you decide how hot, cold, wet, or windy it might be!

Date:

Astronomy

Jan. 19, 2014 Rise Set
Actual Time 7:10 AM MST 5:00 PM MST
Civil Twilight 6:41 AM MST 5:29 PM MST
Nautical Twilight 6:09 AM MST 6:02 PM MST
Astronomical Twilight 5:37 AM MST 6:34 PM MST
Moon 8:38 PM MST (1/19) 8:43 AM MST (1/19)
Length of Visible Light 10h 47m
Length of Day
9h 49m
Waning Gibbous, 89% of the Moon is Illuminated
Jan 19
Waning Gibbous
Jan 23
Last Quarter
Jan 30
New
Feb 6
First Quarter
Feb 14
Full

Hourly Weather History & Observations

Time (MST) Temp. Windchill Dew Point Humidity Pressure Visibility Wind Dir Wind Speed Gust Speed Precip Events Conditions
12:55 AM 36.0 °F 29.0 °F 14.0 °F 41% 30.07 in 10.0 mi West 9.2 mph - N/A   Clear
1:55 AM 33.1 °F 26.9 °F 14.0 °F 46% 30.06 in 10.0 mi Variable 6.9 mph - N/A   Clear
2:55 AM 19.0 °F 9.0 °F 14.0 °F 81% 30.10 in 10.0 mi North 8.1 mph - N/A   Clear
3:55 AM 17.1 °F 7.6 °F 12.9 °F 84% 30.10 in 10.0 mi North 6.9 mph - N/A   Clear
4:55 AM 17.1 °F 6.6 °F 12.0 °F 81% 30.13 in 10.0 mi North 8.1 mph - N/A   Clear
5:55 AM 15.1 °F 2.5 °F 10.9 °F 84% 30.17 in 10.0 mi North 10.4 mph - N/A   Clear
6:55 AM 15.1 °F 7.7 °F 10.0 °F 80% 30.18 in 10.0 mi NNW 4.6 mph - N/A   Clear
7:55 AM 26.1 °F 20.5 °F 12.9 °F 58% 30.15 in 10.0 mi NNW 4.6 mph - N/A   Clear
8:55 AM 39.0 °F 31.4 °F 15.1 °F 38% 30.11 in 10.0 mi WNW 12.7 mph - N/A   Clear
9:55 AM 48.0 °F - 15.1 °F 27% 30.08 in 10.0 mi NW 9.2 mph - N/A   Clear
10:55 AM 55.0 °F - 14.0 °F 20% 30.03 in 10.0 mi WNW 10.4 mph - N/A   Clear
11:55 AM 59.0 °F - 12.0 °F 16% 29.94 in 10.0 mi NW 9.2 mph - N/A   Clear
12:55 PM 60.1 °F - 12.0 °F 15% 29.92 in 10.0 mi NW 11.5 mph - N/A   Clear
1:55 PM 60.1 °F - 9.0 °F 13% 29.91 in 10.0 mi NW 8.1 mph - N/A   Clear
2:55 PM 60.1 °F - 10.0 °F 14% 29.96 in 10.0 mi NW 6.9 mph - N/A   Clear
3:55 PM 57.9 °F - 15.1 °F 19% 29.97 in 10.0 mi West 3.5 mph - N/A   Clear
4:55 PM 44.1 °F 41.5 °F 19.9 °F 38% 30.04 in 10.0 mi NW 4.6 mph - N/A   Clear
5:55 PM 30.0 °F 26.5 °F 21.0 °F 69% 30.10 in 10.0 mi North 3.5 mph - N/A   Clear
6:55 PM 24.1 °F 18.2 °F 19.0 °F 81% 30.13 in 10.0 mi North 4.6 mph - N/A   Clear
7:55 PM 30.9 °F 26.2 °F 21.0 °F 67% 30.05 in 10.0 mi West 4.6 mph - N/A   Clear
8:55 PM 28.0 °F 21.7 °F 19.9 °F 72% 30.01 in 10.0 mi NW 5.8 mph - N/A   Clear
9:55 PM 26.1 °F 18.4 °F 19.9 °F 78% 29.99 in 10.0 mi North 6.9 mph - N/A   Clear
10:55 PM 28.0 °F 21.7 °F 19.0 °F 69% 29.95 in 10.0 mi North 5.8 mph - N/A   Clear
11:55 PM 25.0 °F 18.1 °F 18.0 °F 75% 29.96 in 10.0 mi NNW 5.8 mph - N/A   Clear